Location: Normandy Village
(37.8755°N, 122.2655°W)
Time: 07:26:15
(UTC+00:00)

Cosmos 2227 Rocket - Pass Details

Date: 22 September 2019
Orbit: 837 x 847 km, 71.0° (Epoch: 18 October)

Event Time Altitude Azimuth Distance (km) Brightness Sun altitude
Rises 13:22:19 0° 337° (NNW) 3,414 5.2 -7.6°
Reaches altitude 10° 13:24:46 10° 337° (NNW) 2,475 4.5 -7.1°
Maximum altitude 13:30:28 88° 251° (WSW) 852 2.3 -6.0°
Drops below altitude 10° 13:36:08 10° 160° (SSE) 2,459 4.8 -4.9°
Sets 13:38:34 0° 160° (SSE) 3,389 5.6 -4.4°
